Year,Month,Day,Hour,Minute,Value (Times are PST for temperature in C)
2009,06,04,00,00,14.40
2009,06,04,00,01,14.40
2009,06,04,00,02,14.40
2009,06,04,00,03,14.40
2009,06,04,00,04,14.30
2009,06,04,00,05,14.30
2009,06,04,00,06,14.30
2009,06,04,00,07,14.30
2009,06,04,00,08,14.30
2009,06,04,00,09,14.30
2009,06,04,00,10,14.30
2009,06,04,00,11,14.20
2009,06,04,00,12,14.20
2009,06,04,00,13,14.20
2009,06,04,00,14,14.20
2009,06,04,00,15,14.20
2009,06,04,00,16,14.20
2009,06,04,00,17,14.20
2009,06,04,00,18,14.20
2009,06,04,00,19,14.20
2009,06,04,00,20,14.20
2009,06,04,00,21,14.20
2009,06,04,00,22,14.10
2009,06,04,00,23,14.10
2009,06,04,00,24,14.10
2009,06,04,00,25,14.10
2009,06,04,00,26,14.10
2009,06,04,00,27,14.10
2009,06,04,00,28,14.10
2009,06,04,00,29,14.00
2009,06,04,00,30,14.00
2009,06,04,00,31,14.00
2009,06,04,00,32,14.00
2009,06,04,00,33,14.00
2009,06,04,00,34,14.00
2009,06,04,00,35,14.00
2009,06,04,00,36,14.00
2009,06,04,00,37,14.00
2009,06,04,00,38,14.00
2009,06,04,00,39,14.00
2009,06,04,00,40,13.90
2009,06,04,00,41,14.00
2009,06,04,00,42,14.00
2009,06,04,00,43,14.00
2009,06,04,00,44,14.00
2009,06,04,00,45,14.00
2009,06,04,00,46,13.90
2009,06,04,00,47,13.90
2009,06,04,00,48,13.90
2009,06,04,00,49,13.90
2009,06,04,00,50,13.90
2009,06,04,00,51,13.90
2009,06,04,00,52,13.90
2009,06,04,00,53,13.90
2009,06,04,00,54,13.80
2009,06,04,00,55,13.80
2009,06,04,00,56,13.80
2009,06,04,00,57,13.80
2009,06,04,00,58,13.80
2009,06,04,00,59,13.80
2009,06,04,01,00,13.70
2009,06,04,01,01,13.70
2009,06,04,01,02,13.70
2009,06,04,01,03,13.70
2009,06,04,01,04,13.70
2009,06,04,01,05,13.70
2009,06,04,01,06,13.70
2009,06,04,01,07,13.70
2009,06,04,01,08,13.70
2009,06,04,01,09,13.70
2009,06,04,01,10,13.70
2009,06,04,01,11,13.70
2009,06,04,01,12,13.70
2009,06,04,01,13,13.70
2009,06,04,01,14,13.70
2009,06,04,01,15,13.70
2009,06,04,01,16,13.70
2009,06,04,01,17,13.70
2009,06,04,01,18,13.70
2009,06,04,01,19,13.60
2009,06,04,01,20,13.60
2009,06,04,01,21,13.60
2009,06,04,01,22,13.60
2009,06,04,01,23,13.60
2009,06,04,01,24,13.60
2009,06,04,01,25,13.60
2009,06,04,01,26,13.60
2009,06,04,01,27,13.50
2009,06,04,01,28,13.50
2009,06,04,01,29,13.50
2009,06,04,01,30,13.40
2009,06,04,01,31,13.40
2009,06,04,01,32,13.40
2009,06,04,01,33,13.40
2009,06,04,01,34,13.40
2009,06,04,01,35,13.40
2009,06,04,01,36,13.30
2009,06,04,01,37,13.30
2009,06,04,01,38,13.30
2009,06,04,01,39,13.30
2009,06,04,01,40,13.30
2009,06,04,01,41,13.30
2009,06,04,01,42,13.30
2009,06,04,01,43,13.30
2009,06,04,01,44,13.30
2009,06,04,01,45,13.30
2009,06,04,01,46,13.30
2009,06,04,01,47,13.30
2009,06,04,01,48,13.30
2009,06,04,01,49,13.30
2009,06,04,01,50,13.30
2009,06,04,01,51,13.30
2009,06,04,01,52,13.30
2009,06,04,01,53,13.30
2009,06,04,01,54,13.30
2009,06,04,01,55,13.30
2009,06,04,01,56,13.30
2009,06,04,01,57,13.30
2009,06,04,01,58,13.20
2009,06,04,01,59,13.20
2009,06,04,02,00,13.20
2009,06,04,02,01,13.20
2009,06,04,02,02,13.20
2009,06,04,02,03,13.20
2009,06,04,02,04,13.10
2009,06,04,02,05,13.10
2009,06,04,02,06,13.10
2009,06,04,02,07,13.10
2009,06,04,02,08,13.10
2009,06,04,02,09,13.10
2009,06,04,02,10,13.10
2009,06,04,02,11,13.00
2009,06,04,02,12,13.00
2009,06,04,02,13,13.00
2009,06,04,02,14,13.00
2009,06,04,02,15,13.00
2009,06,04,02,16,13.00
2009,06,04,02,17,13.00
2009,06,04,02,18,13.00
2009,06,04,02,19,13.00
2009,06,04,02,20,13.00
2009,06,04,02,21,13.00
2009,06,04,02,22,13.00
2009,06,04,02,23,13.00
2009,06,04,02,24,13.00
2009,06,04,02,25,13.00
2009,06,04,02,26,13.00
2009,06,04,02,27,13.00
2009,06,04,02,28,12.90
2009,06,04,02,29,12.90
2009,06,04,02,30,12.90
2009,06,04,02,31,12.90
2009,06,04,02,32,12.90
2009,06,04,02,33,12.90
2009,06,04,02,34,12.90
2009,06,04,02,35,12.90
2009,06,04,02,36,12.90
2009,06,04,02,37,12.80
2009,06,04,02,38,12.80
2009,06,04,02,39,12.80
2009,06,04,02,40,12.80
2009,06,04,02,41,12.80
2009,06,04,02,42,12.80
2009,06,04,02,43,12.80
2009,06,04,02,44,12.80
2009,06,04,02,45,12.80
2009,06,04,02,46,12.80
2009,06,04,02,47,12.80
2009,06,04,02,48,12.80
2009,06,04,02,49,12.80
2009,06,04,02,50,12.80
2009,06,04,02,51,12.80
2009,06,04,02,52,12.80
2009,06,04,02,53,12.70
2009,06,04,02,54,12.70
2009,06,04,02,55,12.70
2009,06,04,02,56,12.70
2009,06,04,02,57,12.70
2009,06,04,02,58,12.70
2009,06,04,02,59,12.70
2009,06,04,03,00,12.70
2009,06,04,03,01,12.70
2009,06,04,03,02,12.60
2009,06,04,03,03,12.60
2009,06,04,03,04,12.60
2009,06,04,03,05,12.60
2009,06,04,03,06,12.60
2009,06,04,03,07,12.60
2009,06,04,03,08,12.60
2009,06,04,03,09,12.60
2009,06,04,03,10,12.50
2009,06,04,03,11,12.50
2009,06,04,03,12,12.50
2009,06,04,03,13,12.50
2009,06,04,03,14,12.50
2009,06,04,03,15,12.50
2009,06,04,03,16,12.50
2009,06,04,03,17,12.50
2009,06,04,03,18,12.50
2009,06,04,03,19,12.50
2009,06,04,03,20,12.50
2009,06,04,03,21,12.50
2009,06,04,03,22,12.50
2009,06,04,03,23,12.40
2009,06,04,03,24,12.40
2009,06,04,03,25,12.40
2009,06,04,03,26,12.40
2009,06,04,03,27,12.40
2009,06,04,03,28,12.40
2009,06,04,03,29,12.40
2009,06,04,03,30,12.40
2009,06,04,03,31,12.40
2009,06,04,03,32,12.40
2009,06,04,03,33,12.40
2009,06,04,03,34,12.40
2009,06,04,03,35,12.30
2009,06,04,03,36,12.30
2009,06,04,03,37,12.30
2009,06,04,03,38,12.30
2009,06,04,03,39,12.20
2009,06,04,03,40,12.20
2009,06,04,03,41,12.20
2009,06,04,03,42,12.20
2009,06,04,03,43,12.20
2009,06,04,03,44,12.20
2009,06,04,03,45,12.20
2009,06,04,03,46,12.20
2009,06,04,03,47,12.20
2009,06,04,03,48,12.20
2009,06,04,03,49,12.20
2009,06,04,03,50,12.20
2009,06,04,03,51,12.20
2009,06,04,03,52,12.20
2009,06,04,03,53,12.20
2009,06,04,03,54,12.20
2009,06,04,03,55,12.20
2009,06,04,03,56,12.10
2009,06,04,03,57,12.10
2009,06,04,03,58,12.10
2009,06,04,03,59,12.10
2009,06,04,04,00,12.10
2009,06,04,04,01,12.10
2009,06,04,04,02,12.10
2009,06,04,04,03,12.10
2009,06,04,04,15,12.00
2009,06,04,04,24,12.20
2009,06,04,04,34,12.60
2009,06,04,04,35,12.70
2009,06,04,04,36,12.80
2009,06,04,04,37,12.80
2009,06,04,04,38,12.90
2009,06,04,04,39,13.00
2009,06,04,04,40,13.10
2009,06,04,04,41,13.30
2009,06,04,04,42,13.40
2009,06,04,04,43,13.60
2009,06,04,04,44,13.70
2009,06,04,04,45,13.80
2009,06,04,04,46,14.00
2009,06,04,04,47,14.30
2009,06,04,04,48,14.40
2009,06,04,04,49,14.60
2009,06,04,04,50,14.70
2009,06,04,04,51,14.90
2009,06,04,04,52,15.00
2009,06,04,04,53,15.10
2009,06,04,04,54,15.50
2009,06,04,04,55,15.80
2009,06,04,04,56,16.10
2009,06,04,04,57,16.50
2009,06,04,04,58,16.90
2009,06,04,04,59,17.30
2009,06,04,05,00,17.50
2009,06,04,05,01,17.70
2009,06,04,05,02,17.90
2009,06,04,05,03,18.20
2009,06,04,05,04,18.40
2009,06,04,05,05,18.60
2009,06,04,05,06,18.60
2009,06,04,05,07,18.70
2009,06,04,05,08,18.90
2009,06,04,05,09,19.00
2009,06,04,05,10,19.20
2009,06,04,05,11,19.30
2009,06,04,05,12,19.50
2009,06,04,05,13,19.60
2009,06,04,05,14,19.80
2009,06,04,05,15,19.80
2009,06,04,05,16,19.80
2009,06,04,05,17,19.80
2009,06,04,05,18,19.80
2009,06,04,05,19,19.90
2009,06,04,05,20,19.90
2009,06,04,05,21,20.00
2009,06,04,05,22,20.10
2009,06,04,05,23,20.10
2009,06,04,05,24,20.10
2009,06,04,05,25,20.20
2009,06,04,05,26,20.20
2009,06,04,05,27,20.30
2009,06,04,05,28,20.40
2009,06,04,05,29,20.50
2009,06,04,05,30,20.60
2009,06,04,05,31,20.70
2009,06,04,05,32,20.70
2009,06,04,05,33,20.70
2009,06,04,05,34,20.70
2009,06,04,05,35,20.60
2009,06,04,05,36,20.60
2009,06,04,05,37,20.60
2009,06,04,05,38,20.60
2009,06,04,05,39,20.60
2009,06,04,05,40,20.60
2009,06,04,05,41,20.60
2009,06,04,05,42,20.60
2009,06,04,05,43,20.60
2009,06,04,05,44,20.60
2009,06,04,05,45,20.60
2009,06,04,05,46,20.50
2009,06,04,05,47,20.50
2009,06,04,05,48,20.50
2009,06,04,05,49,20.50
2009,06,04,05,50,20.60
2009,06,04,05,51,20.60
2009,06,04,05,52,20.60
2009,06,04,05,53,20.70
2009,06,04,05,54,20.70
2009,06,04,05,55,20.60
2009,06,04,05,56,20.60
2009,06,04,05,57,20.50
2009,06,04,05,58,20.40
2009,06,04,05,59,20.40
2009,06,04,06,00,20.40
2009,06,04,06,01,20.40
2009,06,04,06,02,20.40
2009,06,04,06,03,20.30
2009,06,04,06,04,20.30
2009,06,04,06,05,20.30
2009,06,04,06,06,20.30
2009,06,04,06,07,20.30
2009,06,04,06,08,20.30
2009,06,04,06,09,20.30
2009,06,04,06,10,20.30
2009,06,04,06,11,20.30
2009,06,04,06,12,20.30
2009,06,04,06,13,20.40
2009,06,04,06,14,20.40
2009,06,04,06,15,20.40
2009,06,04,06,16,20.30
2009,06,04,06,17,20.30
2009,06,04,06,18,20.30
2009,06,04,06,19,20.20
2009,06,04,06,20,20.20
2009,06,04,06,21,20.10
2009,06,04,06,22,20.00
2009,06,04,06,23,19.90
2009,06,04,06,24,19.80
2009,06,04,06,25,19.80
2009,06,04,06,26,19.70
2009,06,04,06,27,19.60
2009,06,04,06,28,19.50
2009,06,04,06,29,19.40
2009,06,04,06,30,19.30
2009,06,04,06,31,19.30
2009,06,04,06,32,19.20
2009,06,04,06,33,19.00
2009,06,04,06,34,19.00
2009,06,04,06,35,18.90
2009,06,04,06,36,18.90
2009,06,04,06,37,18.90
2009,06,04,06,38,18.80
2009,06,04,06,39,18.80
2009,06,04,06,40,18.80
2009,06,04,06,41,18.80
2009,06,04,06,42,18.80
2009,06,04,06,43,18.80
2009,06,04,06,44,18.80
2009,06,04,06,45,18.80
2009,06,04,06,46,18.90
2009,06,04,06,47,18.90
2009,06,04,06,48,19.10
2009,06,04,06,49,19.10
2009,06,04,06,50,19.20
2009,06,04,06,51,19.10
2009,06,04,06,52,19.10
2009,06,04,06,53,19.10
2009,06,04,06,54,19.10
2009,06,04,06,55,19.10
2009,06,04,06,56,19.10
2009,06,04,06,57,19.10
2009,06,04,06,58,19.10
2009,06,04,06,59,19.20
2009,06,04,07,00,19.20
2009,06,04,07,01,19.20
2009,06,04,07,02,19.20
2009,06,04,07,03,19.20
2009,06,04,07,04,19.20
2009,06,04,07,05,19.20
2009,06,04,07,06,19.20
2009,06,04,07,07,19.10
2009,06,04,07,08,19.10
2009,06,04,07,09,19.10
2009,06,04,07,10,19.20
2009,06,04,07,11,19.30
2009,06,04,07,12,19.40
2009,06,04,07,13,19.50
2009,06,04,07,14,19.60
2009,06,04,07,15,19.60
2009,06,04,07,16,19.60
2009,06,04,07,17,19.70
2009,06,04,07,18,19.70
2009,06,04,07,19,19.80
2009,06,04,07,20,20.00
2009,06,04,07,21,20.00
2009,06,04,07,22,20.10
2009,06,04,07,23,20.20
2009,06,04,07,24,20.30
2009,06,04,07,25,20.50
2009,06,04,07,26,20.60
2009,06,04,07,27,20.60
2009,06,04,07,28,20.70
2009,06,04,07,29,20.80
2009,06,04,07,30,20.90
2009,06,04,07,31,21.00
2009,06,04,07,32,21.10
2009,06,04,07,33,21.20
2009,06,04,07,34,21.30
2009,06,04,07,35,21.40
2009,06,04,07,36,21.40
2009,06,04,07,37,21.50
2009,06,04,07,38,21.50
2009,06,04,07,39,21.60
2009,06,04,07,40,21.60
2009,06,04,07,41,21.70
2009,06,04,07,42,21.70
2009,06,04,07,43,21.80
2009,06,04,07,44,21.90
2009,06,04,07,45,21.90
2009,06,04,07,46,22.00
2009,06,04,07,47,22.10
2009,06,04,07,48,22.10
2009,06,04,07,49,22.20
2009,06,04,07,50,22.20
2009,06,04,07,51,22.30
2009,06,04,07,52,22.30
2009,06,04,07,53,22.40
2009,06,04,07,54,22.40
2009,06,04,07,55,22.50
2009,06,04,07,56,22.60
2009,06,04,07,57,22.60
2009,06,04,07,58,22.60
2009,06,04,07,59,22.70
2009,06,04,08,00,22.70
2009,06,04,08,01,22.80
2009,06,04,08,02,22.80
2009,06,04,08,03,22.90
2009,06,04,08,04,22.90
2009,06,04,08,05,22.90
2009,06,04,08,06,22.90
2009,06,04,08,07,22.90
2009,06,04,08,08,22.90
2009,06,04,08,09,22.90
2009,06,04,08,10,22.90
2009,06,04,08,11,22.90
2009,06,04,08,12,22.90
2009,06,04,08,13,22.80
2009,06,04,08,14,22.80
2009,06,04,08,15,22.80
2009,06,04,08,16,22.90
2009,06,04,08,17,22.90
2009,06,04,08,18,22.90
2009,06,04,08,19,22.90
2009,06,04,08,20,22.90
2009,06,04,08,21,22.80
2009,06,04,08,22,22.80
2009,06,04,08,23,22.80
2009,06,04,08,24,22.70
2009,06,04,08,25,22.70
2009,06,04,08,26,22.70
2009,06,04,08,27,22.70
2009,06,04,08,28,22.70
2009,06,04,08,29,22.80
2009,06,04,08,30,22.80
2009,06,04,08,31,22.90
2009,06,04,08,32,22.90
2009,06,04,08,33,22.90
2009,06,04,08,34,23.00
2009,06,04,08,35,23.10
2009,06,04,08,36,23.10
2009,06,04,08,37,23.10
2009,06,04,08,38,23.10
2009,06,04,08,39,23.10
2009,06,04,08,40,23.10
2009,06,04,08,41,23.10
2009,06,04,08,42,23.20
2009,06,04,08,43,23.20
2009,06,04,08,44,23.20
2009,06,04,08,45,23.20
2009,06,04,08,46,23.20
2009,06,04,08,47,23.20
2009,06,04,08,48,23.30
2009,06,04,08,49,23.30
2009,06,04,08,50,23.30
2009,06,04,08,51,23.40
2009,06,04,08,52,23.40
2009,06,04,08,53,23.50
2009,06,04,08,54,23.60
2009,06,04,08,55,23.70
2009,06,04,08,56,23.80
2009,06,04,08,57,23.80
2009,06,04,08,58,23.80
2009,06,04,08,59,23.90
2009,06,04,09,00,23.90
2009,06,04,09,01,23.90
2009,06,04,09,02,23.90
2009,06,04,09,03,24.00
2009,06,04,09,04,24.00
2009,06,04,09,05,24.00
2009,06,04,09,06,24.10
2009,06,04,09,07,24.10
2009,06,04,09,08,24.10
2009,06,04,09,09,24.20
2009,06,04,09,10,24.20
2009,06,04,09,11,24.30
2009,06,04,09,12,24.40
2009,06,04,09,13,24.40
2009,06,04,09,14,24.50
2009,06,04,09,15,24.50
2009,06,04,09,16,24.60
2009,06,04,09,17,24.60
2009,06,04,09,18,24.60
2009,06,04,09,19,24.70
2009,06,04,09,20,24.80
2009,06,04,09,21,24.90
2009,06,04,09,22,25.00
2009,06,04,09,23,25.00
2009,06,04,09,24,25.10
2009,06,04,09,25,25.20
2009,06,04,09,26,25.20
2009,06,04,09,27,25.20
2009,06,04,09,28,25.20
2009,06,04,09,29,25.20
2009,06,04,09,30,25.20
2009,06,04,09,31,25.10
2009,06,04,09,32,25.10
2009,06,04,09,33,25.10
2009,06,04,09,34,25.10
2009,06,04,09,35,25.20
2009,06,04,09,36,25.20
2009,06,04,09,37,25.30
2009,06,04,09,38,25.40
2009,06,04,09,39,25.40
2009,06,04,09,40,25.40
2009,06,04,09,41,25.50
2009,06,04,09,42,25.50
2009,06,04,09,43,25.60
2009,06,04,09,44,25.70
2009,06,04,09,45,25.70
2009,06,04,09,46,25.90
2009,06,04,09,47,25.90
2009,06,04,09,48,26.00
2009,06,04,09,49,26.10
2009,06,04,09,50,26.20
2009,06,04,09,51,26.30
2009,06,04,09,52,26.30
2009,06,04,09,53,26.30
2009,06,04,09,54,26.40
2009,06,04,09,55,26.30
2009,06,04,09,56,26.30
2009,06,04,09,57,26.30
2009,06,04,09,58,26.30
2009,06,04,09,59,26.30
2009,06,04,10,00,26.40
2009,06,04,10,01,26.40
2009,06,04,10,02,26.30
2009,06,04,10,03,26.20
2009,06,04,10,04,26.20
2009,06,04,10,05,26.20
2009,06,04,10,06,26.20
2009,06,04,10,07,26.20
2009,06,04,10,08,26.20
2009,06,04,10,09,26.20
2009,06,04,10,10,26.20
2009,06,04,10,11,26.30
2009,06,04,10,12,26.30
2009,06,04,10,13,26.30
2009,06,04,10,14,26.20
2009,06,04,10,15,26.20
2009,06,04,10,16,26.30
2009,06,04,10,17,26.30
2009,06,04,10,18,26.30
2009,06,04,10,19,26.30
2009,06,04,10,20,26.40
2009,06,04,10,21,26.40
2009,06,04,10,22,26.40
2009,06,04,10,23,26.40
2009,06,04,10,24,26.50
2009,06,04,10,25,26.60
2009,06,04,10,26,26.70
2009,06,04,10,27,26.70
2009,06,04,10,28,26.70
2009,06,04,10,29,26.60
2009,06,04,10,30,26.60
2009,06,04,10,31,26.50
2009,06,04,10,32,26.50
2009,06,04,10,33,26.50
2009,06,04,10,34,26.40
2009,06,04,10,35,26.40
2009,06,04,10,36,26.30
2009,06,04,10,37,26.30
2009,06,04,10,38,26.30
2009,06,04,10,39,26.30
2009,06,04,10,40,26.30
2009,06,04,10,41,26.20
2009,06,04,10,42,26.20
2009,06,04,10,43,26.20
2009,06,04,10,44,26.20
2009,06,04,10,45,26.30
2009,06,04,10,46,26.30
2009,06,04,10,47,26.40
2009,06,04,10,48,26.40
2009,06,04,10,49,26.40
2009,06,04,10,50,26.40
2009,06,04,10,51,26.40
2009,06,04,10,52,26.40
2009,06,04,10,53,26.50
2009,06,04,10,54,26.50
2009,06,04,10,55,26.60
2009,06,04,10,56,26.60
2009,06,04,10,57,26.60
2009,06,04,10,58,26.60
2009,06,04,10,59,26.60
2009,06,04,11,00,26.60
2009,06,04,11,01,26.60
2009,06,04,11,02,26.60
2009,06,04,11,03,26.60
2009,06,04,11,04,26.60
2009,06,04,11,05,26.60
2009,06,04,11,06,26.60
2009,06,04,11,07,26.60
2009,06,04,11,08,26.60
2009,06,04,11,09,26.60
2009,06,04,11,10,26.70
2009,06,04,11,11,26.70
2009,06,04,11,12,26.70
2009,06,04,11,13,26.80
2009,06,04,11,14,26.90
2009,06,04,11,15,26.90
2009,06,04,11,16,27.00
2009,06,04,11,17,27.00
2009,06,04,11,18,27.00
2009,06,04,11,19,27.10
2009,06,04,11,20,27.10
2009,06,04,11,21,27.20
2009,06,04,11,22,27.10
2009,06,04,11,23,27.00
2009,06,04,11,24,27.00
2009,06,04,11,25,26.90
2009,06,04,11,26,26.90
2009,06,04,11,27,26.90
2009,06,04,11,28,26.90
2009,06,04,11,29,26.90
2009,06,04,11,30,26.90
2009,06,04,11,31,26.90
2009,06,04,11,32,26.90
2009,06,04,11,33,26.90
2009,06,04,11,34,26.90
2009,06,04,11,35,27.00
2009,06,04,11,36,27.00
2009,06,04,11,37,27.00
2009,06,04,11,38,27.00
2009,06,04,11,39,27.10
2009,06,04,11,40,27.10
2009,06,04,11,41,27.10
2009,06,04,11,42,27.10
2009,06,04,11,43,27.10
2009,06,04,11,44,27.20
2009,06,04,11,45,27.20
2009,06,04,11,46,27.30
2009,06,04,11,47,27.30
2009,06,04,11,48,27.40
2009,06,04,11,49,27.50
2009,06,04,11,50,27.60
2009,06,04,11,51,27.70
2009,06,04,11,52,27.70
2009,06,04,11,53,27.60
2009,06,04,11,54,27.60
2009,06,04,11,55,27.70
2009,06,04,11,56,27.70
2009,06,04,11,57,27.80
2009,06,04,11,58,27.90
2009,06,04,11,59,28.00
2009,06,04,12,00,28.10
2009,06,04,12,01,28.20
2009,06,04,12,02,28.20
2009,06,04,12,03,28.20
2009,06,04,12,04,28.10
2009,06,04,12,05,28.20
2009,06,04,12,06,28.10
2009,06,04,12,07,28.00
2009,06,04,12,08,27.90
2009,06,04,12,09,27.90
2009,06,04,12,10,27.90
2009,06,04,12,11,27.80
2009,06,04,12,12,27.90
2009,06,04,12,13,28.00
2009,06,04,12,14,28.00
2009,06,04,12,15,28.10
2009,06,04,12,16,28.10
2009,06,04,12,17,28.20
2009,06,04,12,18,28.20
2009,06,04,12,19,28.20
2009,06,04,12,20,28.30
2009,06,04,12,21,28.30
2009,06,04,12,22,28.30
2009,06,04,12,23,28.30
2009,06,04,12,24,28.30
2009,06,04,12,25,28.30
2009,06,04,12,26,28.30
2009,06,04,12,27,28.40
2009,06,04,12,28,28.50
2009,06,04,12,29,28.50
2009,06,04,12,30,28.60
2009,06,04,12,31,28.70
2009,06,04,12,32,28.70
2009,06,04,12,33,28.70
2009,06,04,12,34,28.70
2009,06,04,12,35,28.60
2009,06,04,12,36,28.50
2009,06,04,12,37,28.40
2009,06,04,12,38,28.30
2009,06,04,12,39,28.30
2009,06,04,12,40,28.40
2009,06,04,12,41,28.40
2009,06,04,12,42,28.50
2009,06,04,12,43,28.60
2009,06,04,12,44,28.60
2009,06,04,12,45,28.60
2009,06,04,12,46,28.60
2009,06,04,12,47,28.70
2009,06,04,12,48,28.70
2009,06,04,12,49,28.80
2009,06,04,12,50,28.80
2009,06,04,12,51,28.80
2009,06,04,12,52,28.80
2009,06,04,12,53,28.80
2009,06,04,12,54,28.80
2009,06,04,12,55,28.70
2009,06,04,12,56,28.70
2009,06,04,12,57,28.80
2009,06,04,12,58,28.80
2009,06,04,12,59,28.70
2009,06,04,13,00,28.80
2009,06,04,13,01,28.80
2009,06,04,13,02,28.70
2009,06,04,13,03,28.70
2009,06,04,13,04,28.70
2009,06,04,13,05,28.70
2009,06,04,13,06,28.70
2009,06,04,13,07,28.70
2009,06,04,13,08,28.70
2009,06,04,13,09,28.70
2009,06,04,13,10,28.70
2009,06,04,13,11,28.80
2009,06,04,13,12,28.90
2009,06,04,13,13,28.80
2009,06,04,13,14,28.80
2009,06,04,13,15,28.80
2009,06,04,13,16,28.70
2009,06,04,13,17,28.70
2009,06,04,13,18,28.70
2009,06,04,13,19,28.70
2009,06,04,13,20,28.80
2009,06,04,13,21,28.90
2009,06,04,13,22,29.00
2009,06,04,13,23,29.00
2009,06,04,13,24,29.10
2009,06,04,13,25,29.10
2009,06,04,13,26,29.10
2009,06,04,13,27,29.10
2009,06,04,13,28,29.10
2009,06,04,13,29,29.10
2009,06,04,13,30,29.10
2009,06,04,13,31,29.00
2009,06,04,13,32,29.00
2009,06,04,13,33,29.00
2009,06,04,13,34,29.10
2009,06,04,13,35,29.10
2009,06,04,13,36,29.20
2009,06,04,13,37,29.30
2009,06,04,13,38,29.20
2009,06,04,13,39,29.30
2009,06,04,13,40,29.30
2009,06,04,13,41,29.30
2009,06,04,13,42,29.30
2009,06,04,13,43,29.20
2009,06,04,13,44,29.10
2009,06,04,13,45,29.00
2009,06,04,13,46,28.90
2009,06,04,13,47,28.90
2009,06,04,13,48,28.80
2009,06,04,13,49,28.80
2009,06,04,13,50,28.80
2009,06,04,13,51,28.90
2009,06,04,13,52,29.10
2009,06,04,13,53,29.10
2009,06,04,13,54,29.20
2009,06,04,13,55,29.30
2009,06,04,13,56,29.40
2009,06,04,13,57,29.50
2009,06,04,13,58,29.60
2009,06,04,13,59,29.70
2009,06,04,14,00,29.80
2009,06,04,14,01,29.90
2009,06,04,14,02,30.00
2009,06,04,14,03,30.10
2009,06,04,14,04,30.10
2009,06,04,14,05,30.10
2009,06,04,14,06,30.10
2009,06,04,14,07,30.10
2009,06,04,14,08,30.10
2009,06,04,14,09,30.20
2009,06,04,14,10,30.20
2009,06,04,14,11,30.30
2009,06,04,14,12,30.30
2009,06,04,14,13,30.30
2009,06,04,14,14,30.30
2009,06,04,14,15,30.30
2009,06,04,14,16,30.30
2009,06,04,14,17,30.40
2009,06,04,14,18,30.50
2009,06,04,14,19,30.60
2009,06,04,14,20,30.70
2009,06,04,14,21,30.70
2009,06,04,14,22,30.80
2009,06,04,14,23,30.80
2009,06,04,14,24,30.70
2009,06,04,14,25,30.60
2009,06,04,14,26,30.50
2009,06,04,14,27,30.50
2009,06,04,14,28,30.30
2009,06,04,14,29,30.20
2009,06,04,14,30,30.10
2009,06,04,14,31,30.10
2009,06,04,14,32,30.10
2009,06,04,14,33,30.10
2009,06,04,14,34,30.20
2009,06,04,14,35,30.30
2009,06,04,14,36,30.30
2009,06,04,14,37,30.40
2009,06,04,14,38,30.40
2009,06,04,14,39,30.40
2009,06,04,14,40,30.50
2009,06,04,14,41,30.50
2009,06,04,14,42,30.50
2009,06,04,14,43,30.60
2009,06,04,14,44,30.60
2009,06,04,14,45,30.40
2009,06,04,14,46,30.30
2009,06,04,14,47,30.20
2009,06,04,14,48,30.10
2009,06,04,14,49,30.00
2009,06,04,14,50,29.90
2009,06,04,14,51,30.00
2009,06,04,14,52,30.00
2009,06,04,14,53,30.00
2009,06,04,14,54,30.10
2009,06,04,14,55,30.10
2009,06,04,14,56,30.10
2009,06,04,14,57,30.00
2009,06,04,14,58,30.00
2009,06,04,14,59,29.90
2009,06,04,15,00,29.90
2009,06,04,15,01,29.90
2009,06,04,15,02,29.90
2009,06,04,15,03,29.90
2009,06,04,15,04,30.00
2009,06,04,15,05,30.00
2009,06,04,15,06,30.20
2009,06,04,15,07,30.20
2009,06,04,15,08,30.30
2009,06,04,15,09,30.30
2009,06,04,15,10,30.30
2009,06,04,15,11,30.50
2009,06,04,15,12,30.60
2009,06,04,15,13,30.70
2009,06,04,15,14,30.80
2009,06,04,15,15,30.80
2009,06,04,15,16,30.90
2009,06,04,15,17,30.90
2009,06,04,15,18,30.90
2009,06,04,15,19,31.00
2009,06,04,15,20,31.10
2009,06,04,15,21,31.10
2009,06,04,15,22,31.20
2009,06,04,15,23,31.20
2009,06,04,15,24,31.30
2009,06,04,15,25,31.30
2009,06,04,15,26,31.30
2009,06,04,15,27,31.20
2009,06,04,15,28,31.10
2009,06,04,15,29,31.00
2009,06,04,15,30,31.00
2009,06,04,15,31,31.00
2009,06,04,15,32,30.90
2009,06,04,15,33,30.90
2009,06,04,15,34,30.80
2009,06,04,15,35,30.80
2009,06,04,15,36,30.80
2009,06,04,15,37,30.80
2009,06,04,15,38,30.80
2009,06,04,15,39,30.80
2009,06,04,15,40,30.80
2009,06,04,15,41,30.80
2009,06,04,15,42,30.80
2009,06,04,15,43,30.80
2009,06,04,15,44,30.70
2009,06,04,15,45,30.60
2009,06,04,15,46,30.60
2009,06,04,15,47,30.50
2009,06,04,15,48,30.50
2009,06,04,15,49,30.50
2009,06,04,15,50,30.50
2009,06,04,15,51,30.50
2009,06,04,15,52,30.60
2009,06,04,15,53,30.60
2009,06,04,15,54,30.60
2009,06,04,15,55,30.60
2009,06,04,15,56,30.60
2009,06,04,15,57,30.70
2009,06,04,15,58,30.70
2009,06,04,15,59,30.70
2009,06,04,16,00,30.60
2009,06,04,16,01,30.60
2009,06,04,16,02,30.60
2009,06,04,16,03,30.50
2009,06,04,16,04,30.50
2009,06,04,16,05,30.40
2009,06,04,16,06,30.50
2009,06,04,16,07,30.50
2009,06,04,16,08,30.60
2009,06,04,16,09,30.50
2009,06,04,16,10,30.60
2009,06,04,16,11,30.60
2009,06,04,16,12,30.60
2009,06,04,16,13,30.50
2009,06,04,16,14,30.40
2009,06,04,16,15,30.30
2009,06,04,16,16,30.20
2009,06,04,16,17,30.20
2009,06,04,16,18,30.20
2009,06,04,16,19,30.20
2009,06,04,16,20,30.10
2009,06,04,16,21,30.10
2009,06,04,16,22,30.10
2009,06,04,16,23,30.10
2009,06,04,16,24,30.10
2009,06,04,16,25,30.10
2009,06,04,16,26,30.20
2009,06,04,16,27,30.20
2009,06,04,16,28,30.20
2009,06,04,16,29,30.30
2009,06,04,16,30,30.30
2009,06,04,16,31,30.20
2009,06,04,16,32,30.20
2009,06,04,16,33,30.20
2009,06,04,16,34,30.20
2009,06,04,16,35,30.20
2009,06,04,16,36,30.20
2009,06,04,16,37,30.20
2009,06,04,16,38,30.30
2009,06,04,16,39,30.30
2009,06,04,16,40,30.30
2009,06,04,16,41,30.30
2009,06,04,16,42,30.30
2009,06,04,16,43,30.30
2009,06,04,16,44,30.30
2009,06,04,16,45,30.30
2009,06,04,16,46,30.20
2009,06,04,16,47,30.20
2009,06,04,16,48,30.20
2009,06,04,16,49,30.10
2009,06,04,16,50,30.10
2009,06,04,16,51,30.10
2009,06,04,16,52,30.00
2009,06,04,16,53,30.00
2009,06,04,16,54,30.00
2009,06,04,16,55,30.00
2009,06,04,16,56,30.00
2009,06,04,16,57,30.10
2009,06,04,16,58,30.10
2009,06,04,16,59,30.10
2009,06,04,17,00,30.10
2009,06,04,17,01,30.10
2009,06,04,17,02,30.10
2009,06,04,17,03,30.10
2009,06,04,17,04,30.10
2009,06,04,17,05,30.10
2009,06,04,17,06,30.10
2009,06,04,17,07,30.20
2009,06,04,17,08,30.20
2009,06,04,17,09,30.20
2009,06,04,17,10,30.20
2009,06,04,17,11,30.20
2009,06,04,17,12,30.20
2009,06,04,17,13,30.20
2009,06,04,17,14,30.20
2009,06,04,17,15,30.10
2009,06,04,17,16,30.10
2009,06,04,17,17,30.10
2009,06,04,17,18,30.10
2009,06,04,17,19,30.10
2009,06,04,17,20,30.10
2009,06,04,17,21,30.10
2009,06,04,17,22,30.10
2009,06,04,17,23,30.10
2009,06,04,17,24,30.10
2009,06,04,17,25,30.10
2009,06,04,17,26,30.10
2009,06,04,17,27,30.10
2009,06,04,17,28,30.10
2009,06,04,17,29,30.10
2009,06,04,17,30,30.10
2009,06,04,17,31,30.10
2009,06,04,17,32,30.10
2009,06,04,17,33,30.20
2009,06,04,17,34,30.20
2009,06,04,17,35,30.20
2009,06,04,17,36,30.20
2009,06,04,17,37,30.20
2009,06,04,17,38,30.20
2009,06,04,17,39,30.20
2009,06,04,17,40,30.20
2009,06,04,17,41,30.20
2009,06,04,17,42,30.20
2009,06,04,17,43,30.20
2009,06,04,17,44,30.20
2009,06,04,17,45,30.20
2009,06,04,17,46,30.20
2009,06,04,17,47,30.20